This demonstration page uses our WeatherBlox Daily Observations layout. Learn more.

40.92945, -100.16068

Hourly Observations for December 6, 2019

Temp ( °F °C ) Dew Point ( °F °C ) Humidity (%) Winds ( mph kmh ) Pressure ( in mb ) Visibility ( mi km ) Precip ( " mm )
12:15 am 00:15 Cloudy 32 0 29 -1.7 88 88 NNE 10 17 30.42 1030 10 16.09344 0 0
12:35 am 00:35 Cloudy 31 -0.6 28 -2.2 89 89 NNE 10 17 30.42 1030 10 16.09344 0 0
12:55 am 00:55 Mostly Cloudy 31 -0.7 28 -2.3 89 89 NNE 10 17 30.42 1030 10 16.09344 0 0
1:15 am 01:15 Mostly Cloudy 31 -0.8 27 -2.7 87 87 NNE 15 24 30.42 1030 10 16.09344 0 0
1:35 am 01:35 Cloudy 31 -0.8 27 -2.6 88 88 N 12 19 30.42 1030 10 16.09344 0 0
1:55 am 01:55 Cloudy 30 -1 27 -3 86 86 N 14 22 30.45 1031 10 16.09344 0 0
2:15 am 02:15 Cloudy 30 -1 27 -2.9 87 87 N 14 22 30.45 1031 10 16.09344 0 0
2:35 am 02:35 Cloudy 30 -1.1 26 -3.2 86 86 N 12 19 30.45 1031 10 16.09344 0 0
2:55 am 02:55 Cloudy 30 -1.1 26 -3.2 86 86 N 12 19 30.45 1031 10 16.09344 0 0
3:15 am 03:15 Cloudy 30 -1.2 26 -3.4 85 85 N 9 15 30.45 1031 10 16.09344 0 0
3:35 am 03:35 Cloudy 30 -1.3 26 -3.5 85 85 N 8 13 30.45 1031 10 16.09344 0 0
3:55 am 03:55 Cloudy 29 -1.5 26 -3.2 88 88 N 7 11 30.45 1031 10 16.09344 0 0
4:15 am 04:15 Cloudy 29 -1.5 26 -3.2 88 88 N 3 6 30.45 1031 10 16.09344 0 0
4:35 am 04:35 Cloudy 29 -1.6 26 -3.3 88 88 N 5 7 30.45 1031 10 16.09344 0 0
4:55 am 04:55 Cloudy 29 -1.7 26 -3.4 88 88 N 3 6 30.45 1031 10 16.09344 0 0
5:15 am 05:15 Cloudy 29 -1.8 26 -3.5 88 88 N 5 7 30.45 1031 10 16.09344 0 0
5:35 am 05:35 Cloudy 28 -2 26 -3.5 90 90 N 8 13 30.45 1031 10 16.09344 0 0
5:55 am 05:55 Cloudy 28 -2.3 25 -4 88 88 N 3 6 30.45 1031 10 16.09344 0 0
6:15 am 06:15 Cloudy 28 -2.2 25 -3.9 88 88 Calm 30.45 1031 10 16.09344 0 0
6:35 am 06:35 Cloudy 28 -2.2 26 -3.6 90 90 N 5 7 30.5 1033 10 16.09344 0 0
6:55 am 06:55 Cloudy 28 -2.4 25 -3.9 90 90 Calm 30.5 1033 10 16.09344 0 0
7:15 am 07:15 Cloudy 28 -2.5 25 -3.9 90 90 Calm 30.5 1033 10 16.09344 0 0
7:35 am 07:35 Cloudy 27 -2.6 25 -4.1 90 90 Calm 30.5 1033 10 16.09344 0 0
7:55 am 07:55 Cloudy 27 -2.8 24 -4.5 88 88 Calm 30.5 1033 10 16.09344 0 0
8:15 am 08:15 Cloudy 27 -3 24 -4.3 91 91 Calm 30.5 1033 10 16.09344 0 0
8:35 am 08:35 Cloudy 27 -2.8 25 -4.1 91 91 Calm 30.5 1033 10 16.09344 0 0
8:55 am 08:55 Cloudy 27 -2.9 24 -4.2 91 91 NNW 3 6 30.5 1033 10 16.09344 0 0
9:15 am 09:15 Cloudy 27 -2.8 25 -4.1 91 91 Calm 30.5 1033 10 16.09344 0 0
9:35 am 09:35 Cloudy 28 -2.5 25 -4 90 90 Calm 30.53 1034 10 16.09344 0 0
9:55 am 09:55 Cloudy 27 -2.6 25 -4 90 90 SSW 3 6 30.53 1034 10 16.09344 0 0
10:15 am 10:15 Cloudy 28 -2.2 25 -3.9 88 88 SW 3 6 30.53 1034 10 16.09344 0 0
10:35 am 10:35 Cloudy 28 -2.2 25 -3.8 89 89 Calm 30.53 1034 10 16.09344 0 0
10:55 am 10:55 Cloudy 28 -2 25 -3.7 88 88 W 5 7 30.53 1034 10 16.09344 0 0
11:15 am 11:15 Partly Cloudy 30 -1.2 26 -3.4 85 85 WSW 3 6 30.48 1032 10 16.09344 0 0
11:35 am 11:35 Sunny 31 -0.4 27 -3 83 83 SW 5 7 30.48 1032 10 16.09344 0 0
11:55 am 11:55 Sunny 32 0.2 28 -2.3 84 84 S 8 13 30.45 1031 10 16.09344 0 0
12:15 pm 12:15 Sunny 34 1.2 29 -1.9 80 80 SSW 6 9 30.42 1030 10 16.09344 0 0
12:35 pm 12:35 Sunny 36 2.2 29 -1.7 76 76 SW 5 7 30.42 1030 10 16.09344 0 0
12:55 pm 12:55 Sunny 37 3 29 -1.6 72 72 SW 9 15 30.39 1029 10 16.09344 0 0
1:15 pm 13:15 Sunny 38 3.3 29 -1.6 71 71 SW 10 17 30.42 1030 10 16.09344 0 0
1:35 pm 13:35 Sunny 39 4 29 -1.5 68 68 SSW 13 20 30.36 1028 10 16.09344 0 0
1:55 pm 13:55 Sunny 40 4.5 29 -1.4 66 66 SSW 12 19 30.36 1028 10 16.09344 0 0
2:15 pm 14:15 Partly Cloudy 40 4.4 29 -1.9 64 64 SW 12 19 30.36 1028 10 16.09344 0 0
2:35 pm 14:35 Mostly Cloudy 40 4.5 29 -1.7 64 64 SSW 10 17 30.33 1027 10 16.09344 0 0
2:55 pm 14:55 Mostly Cloudy 41 5.1 29 -1.4 63 63 SSW 12 19 30.33 1027 10 16.09344 0 0
3:15 pm 15:15 Partly Cloudy 41 5 28 -2 61 61 SSW 13 20 30.33 1027 10 16.09344 0 0
3:35 pm 15:35 Sunny 41 5.1 30 -1.3 64 64 SSW 14 22 30.33 1027 10 16.09344 0 0
3:55 pm 15:55 Sunny 41 5.2 30 -1.3 63 63 SSW 13 20 30.33 1027 10 16.09344 0 0
4:15 pm 16:15 Sunny 41 5 30 -1.2 65 65 SSW 12 19 30.33 1027 10 16.09344 0 0
4:35 pm 16:35 Sunny 40 4.5 30 -1.1 67 67 S 8 13 30.33 1027 10 16.09344 0 0
4:55 pm 16:55 Sunny 38 3.4 30 -1.3 72 72 S 8 13 30.33 1027 10 16.09344 0 0
5:15 pm 17:15 Clear 36 2.3 29 -1.6 76 76 S 8 13 30.33 1027 10 16.09344 0 0
5:35 pm 17:35 Clear 34 1.2 28 -2 79 79 SSE 5 7 30.33 1027 10 16.09344 0 0
5:55 pm 17:55 Clear 33 0.5 28 -2.5 81 81 SSE 6 9 30.36 1028 10 16.09344 0 0
6:15 pm 18:15 Clear 32 0 27 -2.6 83 83 SSE 6 9 30.33 1027 10 16.09344 0 0
6:35 pm 18:35 Clear 33 0.8 28 -2.5 79 79 SE 6 9 30.33 1027 10 16.09344 0 0
6:55 pm 18:55 Clear 34 0.9 28 -2.5 78 78 SE 5 7 30.33 1027 10 16.09344 0 0
7:15 pm 19:15 Clear 33 0.3 27 -2.7 81 81 SSE 6 9 30.33 1027 10 16.09344 0 0
7:35 pm 19:35 Clear 33 0.4 27 -2.6 81 81 SE 6 9 30.36 1028 10 16.09344 0 0
7:55 pm 19:55 Clear 32 0.1 27 -2.9 80 80 SE 5 7 30.36 1028 10 16.09344 0 0
8:15 pm 20:15 Clear 32 0 27 -2.9 81 81 SSE 6 9 30.36 1028 10 16.09344 0 0
8:35 pm 20:35 Clear 32 0 27 -3 80 80 SSE 7 11 30.33 1027 10 16.09344 0 0
8:55 pm 20:55 Clear 31 -0.3 26 -3.2 81 81 S 7 11 30.33 1027 10 16.09344 0 0
9:15 pm 21:15 Clear 29 -1.4 26 -3.5 86 86 S 6 9 30.36 1028 10 16.09344 0 0
9:35 pm 21:35 Clear 32 0 27 -3 80 80 S 10 17 30.33 1027 10 16.09344 0 0
9:55 pm 21:55 Clear 33 0.4 27 -2.7 80 80 SSE 7 11 30.33 1027 10 16.09344 0 0
10:15 pm 22:15 Clear 32 0.1 28 -2.5 83 83 SSE 3 6 30.33 1027 10 16.09344 0 0
10:35 pm 22:35 Clear 33 0.7 28 -2.2 81 81 SSE 3 6 30.33 1027 10 16.09344 0 0
10:55 pm 22:55 Clear 35 1.6 29 -1.5 80 80 SSW 5 7 30.33 1027 10 16.09344 0 0
11:15 pm 23:15 Clear 34 0.9 29 -1.7 83 83 SSW 7 11 30.3 1026 10 16.09344 0 0
11:35 pm 23:35 Clear 34 1.1 30 -1.3 84 84 SSW 9 15 30.3 1026 10 16.09344 0 0
11:55 pm 23:55 Clear 35 1.4 30 -1 84 84 SSW 10 17 30.3 1026 10 16.09344 0 0

Powered by AerisWeather